CDT,Max TemperatureF,Mean TemperatureF,Min TemperatureF,Max Dew PointF,MeanDew PointF,Min DewpointF,Max Humidity, Mean Humidity, Min Humidity, Max Sea Level PressureIn, Mean Sea Level PressureIn, Min Sea Level PressureIn, Max VisibilityMiles, Mean VisibilityMiles, Min VisibilityMiles, Max Wind SpeedMPH, Mean Wind SpeedMPH, Max Gust SpeedMPH,PrecipitationIn, CloudCover, Events, WindDirDegrees
2013-6-1,75,63,51,61,53,41,94,75,44,29.90,29.67,29.57,10,10,7,15,6,25,0.09,6,Rain,326
2013-6-2,66,56,46,48,41,37,87,63,35,30.07,30.01,29.92,10,10,7,13,6,20,0.00,4,,349
2013-6-3,69,56,42,52,44,39,100,62,33,30.07,30.03,29.95,10,9,3,8,1,,0.00,1,Rain,145
2013-6-4,62,58,55,54,50,45,88,73,52,30.11,30.07,30.00,10,10,7,17,7,22,0.00,5,Rain-Thunderstorm,124
2013-6-5,57,55,53,55,53,52,100,92,82,30.06,29.99,29.93,10,5,1,10,7,,0.01,8,Rain-Thunderstorm,108
2013-6-6,59,56,53,54,52,52,94,88,77,30.02,29.97,29.93,10,9,2,7,3,,0.00,8,,45
2013-6-7,66,60,53,52,51,48,94,74,52,30.04,29.98,29.92,10,9,4,5,1,,0.00,5,,131
2013-6-8,73,63,53,57,53,50,94,71,46,29.93,29.91,29.90,10,10,7,13,4,,0.00,3,,120
2013-6-9,68,62,57,63,57,52,94,85,64,29.92,29.82,29.77,10,9,2,16,11,23,0.36,5,Rain,109
2013-6-10,78,68,57,63,60,55,100,81,47,29.85,29.82,29.79,10,7,1,9,2,,0.00,3,,263
2013-6-11,78,66,53,68,62,54,100,86,61,29.90,29.86,29.80,10,6,0,7,1,,0.00,1,Fog-Rain-Thunderstorm,113
2013-6-12,73,68,62,66,64,57,100,85,64,29.89,29.81,29.75,10,8,2,12,4,17,0.19,3,Rain-Thunderstorm,55
2013-6-13,78,68,57,59,53,50,88,60,41,30.07,30.02,29.87,10,10,10,12,6,20,0.00,1,,7
2013-6-14,78,68,57,59,56,52,88,63,47,30.10,30.01,29.88,10,10,10,14,7,18,0.00,1,,130
2013-6-15,78,69,60,66,63,57,94,79,60,29.99,29.88,29.83,10,10,5,13,6,20,0.38,3,Rain-Thunderstorm,186
2013-6-16,86,70,53,63,53,45,100,64,23,29.92,29.89,29.84,10,8,0,26,3,41,0.01,1,Fog-Rain,299
2013-6-17,84,70,55,61,55,50,94,62,30,29.99,29.91,29.86,10,10,5,15,4,20,0.00,1,,332
2013-6-18,75,67,59,57,55,54,88,67,47,30.08,30.04,30.00,10,10,10,9,4,,0.00,2,,105
2013-6-19,82,70,57,63,57,52,94,61,42,30.09,30.03,29.96,10,10,10,13,5,,0.00,1,Rain,131
2013-6-20,89,78,68,68,63,59,78,62,38,30.04,29.98,29.91,10,10,7,16,7,23,0.00,1,Rain-Thunderstorm,130
2013-6-21,80,73,66,70,65,61,94,76,58,30.04,29.91,29.77,10,10,2,24,8,41,0.90,2,Rain-Thunderstorm,180
2013-6-22,82,73,64,70,66,61,100,80,65,30.05,29.90,29.83,10,10,5,14,7,17,0.35,3,Rain-Thunderstorm,107
2013-6-23,84,75,66,70,66,63,100,74,51,29.90,29.81,29.73,10,10,5,20,10,30,0.13,1,Rain-Thunderstorm,189
2013-6-24,80,71,62,72,65,61,100,82,61,29.92,29.87,29.82,10,9,4,15,2,21,0.00,1,Rain-Thunderstorm,166
2013-6-25,84,74,64,72,67,63,94,79,65,29.85,29.79,29.73,10,10,7,12,5,,0.00,0,Rain-Thunderstorm,129
2013-6-26,84,76,69,73,71,66,100,85,65,29.81,29.71,29.67,10,7,1,17,4,24,1.32,2,Rain-Thunderstorm,151
2013-6-27,87,76,64,70,60,52,100,62,29,29.82,29.79,29.77,10,9,1,20,5,29,0.00,0,,298
2013-6-28,78,69,60,66,61,57,94,74,54,29.79,29.75,29.72,10,10,2,17,7,24,0.23,2,Rain,321
2013-6-29,75,68,62,63,57,48,94,69,44,29.96,29.83,29.73,10,10,7,13,5,23,0.14,4,Rain-Thunderstorm,29
2013-6-30,80,66,53,61,50,45,82,55,28,30.10,30.05,29.96,10,10,2,10,5,18,0.00,0,,11